STARLINK-37066, 68081

Orbit data source: Space-Track

STARLINK-37066, 68081 is a payload satellite owned by SpaceX/Seattle (US) in LEO that was launched on Wed, 04 Mar 2026 UTC via an FALCON 9 launch vehicle from the Air Force Eastern Test Range (AFETR). Payload-class satellites include a variety of spacecraft equipped with specific instruments for various scientific and technological missions. These include communications satellites like Starlink; space stations such as the ISS; scientific satellites like the Hubble; Earth observation satellites from companies like Planet Labs, Umbra, and HawkEye 360; GPS; miniature CubeSats for education and research; and military/defense satellites.

Loading next visibility...
Identifier
68081, 2026-042N
Orbit
LEO
Country
Flag of USUS
Related business
Manufacturer
SpaceX/Seattle
Mission
Operational spacecraft
Bus & Motor
STARLINK V2MO, Unknown motor
Mass
575 kg wet, ~530 kg dry
Launch date (UTC)
2026-03-04 (1 month ago)
Launch vehicle
FALCON 9
Launch site
Air Force Eastern Test Range (AFETR)
Object type
Payload
Rocket body
Debris
Shape & HBR
Unknown shape, 17.7 m
Radar Cross Section
RCS unknown

Expand to show TLE details & history
Last TLE update: 9 hours ago

TLE from 9 hours ago
0 STARLINK-37066
1 68081U 26042N   26102.21025182  .00194669  00000-0  12467-2 0  9996
2 68081  53.1592  27.6098 0001052  84.6976 275.4164 15.75209126  7374
Epoch: 2026-04-12T05:02Z
TLE epoch observation values (Epoch: 2026-04-12T05:02:45.757Z)
Latitude
-0.00003°
Longitude
111.50064°
Altitude
344.887 km
Speed
7.703 km/s
True Right ascension
01h 50m 26s
True Declination
0° 00' 00"
Sunlit
Object was in daylight at epoch
Visualization orbit readout
Latitude
Unknown
Longitude
Unknown
Altitude
Unknown
Speed
Unknown
Apparent Right ascension
Unknown
Apparent Declination
Unknown
Sunlit
N/A
Visualization observer readout
Local Sidereal Time
20:41:05
Azimuth
Unknown
Elevation
Unknown
Doppler factor
Unknown
Orbital elements
Apogee altitude
345.005 km
Perigee altitude
343.59 km
Semi-major axis
6,722.435 km
Eccentricity
0.00011
Inclination
53.1592°
RAAN
27.6098°
Arg. of periapsis
84.6976°
True anomaly
275.4044°
Mean anomaly
275.4164°
Eccentric anomaly
275.4104°
Mean motion
3.9378 °/min
Orbital period
91.42 mins
BSTAR
0.0012467
Loading maneuver chart data...
Computing Atmospheric mass density...
Loading historical data...
Loading historical data...
Loading historical data...
Loading historical data...
Loading historical data...
Loading historical data...
Loading historical data...

Documentation

Showing up to 5 results
|